Total_Precipitation_Accumulation
0.54 0.46 0.60 0.61 0.51 0.56 0.75 0.61 0.49 0.22 0.15 0.14 0.15 0.16 0.14 0.13 0.08 0.06 0.06 0.05 0.05 0.06 0.06 0.06 0.07 0.07 0.06 0.07 0.09 0.12 0.15 0.15 0.14 0.13 0.14 0.16 0.17 0.16 0.14 0.13 0.13 0.13 0.15 0.16
0.51 0.43 0.55 0.55 0.45 0.42 0.40 0.35 0.32 0.24 0.22 0.13 0.14 0.15 0.14 0.13 0.08 0.06 0.05 0.04 0.04 0.05 0.05 0.04 0.05 0.05 0.05 0.06 0.08 0.10 0.15 0.18 0.16 0.15 0.15 0.17 0.19 0.18 0.18 0.18 0.18 0.19 0.23 0.26
0.54 0.38 0.48 0.54 0.40 0.32 0.27 0.22 0.23 0.28 0.22 0.13 0.16 0.17 0.16 0.14 0.10 0.06 0.04 0.03 0.03 0.04 0.03 0.03 0.04 0.05 0.04 0.06 0.08 0.10 0.16 0.25 0.24 0.22 0.23 0.23 0.27 0.29 0.31 0.33 0.35 0.38 0.43 0.49
0.51 0.44 0.54 0.38 0.20 0.16 0.15 0.14 0.14 0.16 0.14 0.13 0.18 0.18 0.13 0.10 0.08 0.06 0.03 0.03 0.02 0.02 0.01 0.02 0.03 0.05 0.06 0.07 0.09 0.10 0.13 0.20 0.26 0.30 0.38 0.40 0.44 0.48 0.50 0.53 0.58 0.66 0.71 0.72
0.39 0.34 0.25 0.12 0.09 0.08 0.11 0.11 0.08 0.08 0.07 0.08 0.11 0.20 0.17 0.11 0.07 0.07 0.05 0.04 0.04 0.04 0.04 0.05 0.06 0.07 0.09 0.11 0.13 0.16 0.20 0.24 0.29 0.36 0.45 0.52 0.60 0.65 0.68 0.72 0.75 0.75 0.71 0.64
0.30 0.26 0.12 0.06 0.03 0.03 0.07 0.12 0.06 0.06 0.05 0.05 0.06 0.13 0.16 0.15 0.11 0.07 0.07 0.07 0.06 0.07 0.09 0.10 0.11 0.14 0.19 0.24 0.28 0.34 0.39 0.44 0.49 0.54 0.59 0.61 0.65 0.68 0.66 0.61 0.56 0.48 0.38 0.30
0.27 0.22 0.05 0.02 0.01 0.02 0.08 0.12 0.05 0.05 0.06 0.05 0.05 0.05 0.06 0.07 0.09 0.10 0.10 0.10 0.11 0.12 0.14 0.16 0.20 0.27 0.35 0.42 0.47 0.52 0.54 0.57 0.62 0.65 0.64 0.59 0.51 0.43 0.34 0.27 0.22 0.17 0.13 0.10
0.15 0.17 0.06 0.01 0.02 0.04 0.06 0.04 0.03 0.04 0.04 0.05 0.04 0.04 0.03 0.03 0.04 0.07 0.11 0.14 0.18 0.19 0.21 0.23 0.28 0.34 0.39 0.45 0.47 0.46 0.47 0.46 0.43 0.37 0.30 0.25 0.21 0.16 0.12 0.09 0.07 0.06 0.05 0.06
0.07 0.07 0.04 0.02 0.03 0.03 0.02 0.02 0.02 0.02 0.03 0.03 0.02 0.03 0.03 0.02 0.02 0.03 0.05 0.08 0.10 0.13 0.14 0.16 0.17 0.20 0.25 0.26 0.22 0.20 0.18 0.16 0.14 0.11 0.09 0.08 0.08 0.07 0.06 0.05 0.05 0.06 0.06 0.06
0.04 0.03 0.02 0.02 0.02 0.02 0.02 0.02 0.02 0.02 0.02 0.03 0.03 0.03 0.04 0.03 0.03 0.03 0.03 0.04 0.05 0.06 0.07 0.07 0.08 0.09 0.12 0.11 0.09 0.08 0.08 0.08 0.08 0.08 0.07 0.07 0.08 0.08 0.08 0.08 0.09 0.09 0.10 0.09
0.05 0.03 0.04 0.04 0.03 0.02 0.02 0.02 0.01 0.02 0.02 0.03 0.03 0.03 0.03 0.02 0.02 0.02 0.02 0.03 0.03 0.03 0.04 0.05 0.05 0.05 0.05 0.05 0.05 0.06 0.06 0.07 0.08 0.08 0.08 0.09 0.09 0.09 0.11 0.12 0.14 0.15 0.14 0.14
0.06 0.04 0.04 0.03 0.02 0.02 0.02 0.02 0.02 0.03 0.02 0.02 0.02 0.02 0.02 0.03 0.03 0.03 0.03 0.03 0.03 0.04 0.05 0.06 0.06 0.07 0.06 0.06 0.06 0.08 0.08 0.09 0.10 0.12 0.12 0.13 0.13 0.12 0.13 0.13 0.16 0.17 0.16 0.16
0.04 0.04 0.03 0.02 0.02 0.03 0.04 0.04 0.04 0.04 0.03 0.02 0.02 0.03 0.03 0.04 0.04 0.04 0.04 0.05 0.05 0.05 0.06 0.07 0.07 0.07 0.07 0.06 0.07 0.08 0.09 0.10 0.11 0.11 0.12 0.13 0.15 0.16 0.16 0.17 0.19 0.19 0.19 0.18
0.03 0.03 0.04 0.03 0.03 0.02 0.02 0.02 0.03 0.03 0.04 0.04 0.03 0.03 0.03 0.04 0.04 0.05 0.05 0.05 0.06 0.06 0.07 0.07 0.07 0.06 0.07 0.07 0.07 0.08 0.09 0.11 0.13 0.12 0.12 0.12 0.13 0.14 0.15 0.17 0.18 0.17 0.18 0.20
0.02 0.02 0.03 0.03 0.03 0.03 0.02 0.02 0.03 0.03 0.03 0.04 0.04 0.04 0.04 0.04 0.04 0.05 0.05 0.05 0.05 0.05 0.06 0.07 0.07 0.07 0.06 0.06 0.06 0.08 0.09 0.10 0.11 0.13 0.14 0.14 0.15 0.15 0.14 0.14 0.14 0.15 0.16 0.19
0.03 0.03 0.03 0.03 0.03 0.03 0.03 0.03 0.03 0.03 0.03 0.03 0.03 0.03 0.03 0.04 0.04 0.04 0.05 0.05 0.06 0.07 0.07 0.07 0.07 0.07 0.07 0.06 0.06 0.07 0.08 0.11 0.12 0.12 0.12 0.13 0.14 0.15 0.15 0.14 0.14 0.14 0.14 0.16
0.05 0.05 0.05 0.04 0.04 0.04 0.03 0.03 0.03 0.03 0.04 0.04 0.04 0.04 0.04 0.04 0.04 0.05 0.05 0.06 0.06 0.07 0.07 0.07 0.07 0.07 0.07 0.07 0.08 0.08 0.09 0.11 0.14 0.13 0.11 0.11 0.13 0.15 0.16 0.16 0.16 0.15 0.14 0.18
0.08 0.07 0.07 0.06 0.05 0.05 0.05 0.05 0.05 0.05 0.05 0.05 0.05 0.05 0.05 0.05 0.05 0.05 0.05 0.06 0.06 0.06 0.07 0.07 0.08 0.09 0.09 0.09 0.09 0.09 0.10 0.11 0.12 0.13 0.13 0.14 0.16 0.16 0.16 0.17 0.16 0.16 0.15 0.19
0.09 0.09 0.08 0.07 0.08 0.09 0.09 0.09 0.09 0.08 0.07 0.06 0.06 0.06 0.06 0.06 0.06 0.06 0.06 0.05 0.05 0.06 0.07 0.08 0.10 0.09 0.10 0.12 0.14 0.12 0.12 0.13 0.14 0.14 0.15 0.17 0.19 0.16 0.16 0.17 0.17 0.17 0.17 0.18
0.11 0.12 0.11 0.11 0.11 0.12 0.11 0.10 0.09 0.09 0.07 0.07 0.07 0.07 0.06 0.06 0.06 0.06 0.06 0.06 0.07 0.07 0.08 0.09 0.09 0.09 0.09 0.11 0.14 0.13 0.13 0.14 0.15 0.16 0.16 0.17 0.17 0.16 0.16 0.16 0.17 0.17 0.18 0.18
0.11 0.12 0.13 0.14 0.14 0.14 0.13 0.12 0.11 0.11 0.11 0.10 0.10 0.10 0.09 0.07 0.06 0.05 0.06 0.07 0.08 0.08 0.08 0.08 0.08 0.07 0.08 0.10 0.12 0.12 0.13 0.14 0.15 0.16 0.17 0.18 0.18 0.17 0.17 0.17 0.17 0.17 0.18 0.18
0.13 0.14 0.13 0.12 0.12 0.12 0.12 0.11 0.11 0.11 0.12 0.12 0.11 0.10 0.09 0.08 0.07 0.06 0.06 0.07 0.08 0.09 0.08 0.07 0.07 0.08 0.10 0.11 0.10 0.10 0.12 0.13 0.14 0.15 0.15 0.16 0.16 0.16 0.15 0.15 0.16 0.15 0.15 0.15
0.13 0.14 0.14 0.14 0.13 0.12 0.12 0.11 0.11 0.11 0.11 0.11 0.10 0.10 0.09 0.08 0.07 0.07 0.08 0.08 0.07 0.08 0.07 0.06 0.08 0.10 0.11 0.11 0.10 0.11 0.12 0.13 0.13 0.14 0.14 0.14 0.14 0.15 0.15 0.14 0.14 0.14 0.14 0.13
0.11 0.12 0.13 0.11 0.10 0.09 0.10 0.10 0.11 0.12 0.11 0.11 0.11 0.11 0.10 0.08 0.08 0.07 0.08 0.08 0.08 0.08 0.07 0.07 0.09 0.10 0.10 0.10 0.09 0.11 0.12 0.12 0.12 0.13 0.13 0.13 0.13 0.13 0.13 0.13 0.13 0.12 0.11 0.11
0.08 0.08 0.09 0.09 0.09 0.08 0.08 0.08 0.09 0.11 0.12 0.11 0.10 0.10 0.10 0.09 0.09 0.09 0.08 0.08 0.08 0.08 0.08 0.09 0.10 0.10 0.10 0.10 0.10 0.11 0.11 0.12 0.12 0.12 0.11 0.11 0.11 0.12 0.11 0.11 0.11 0.11 0.10 0.09
0.04 0.04 0.04 0.05 0.05 0.06 0.06 0.07 0.08 0.09 0.09 0.08 0.09 0.09 0.09 0.08 0.08 0.08 0.08 0.08 0.09 0.10 0.10 0.09 0.10 0.11 0.11 0.10 0.11 0.11 0.11 0.11 0.11 0.11 0.10 0.10 0.10 0.10 0.10 0.10 0.10 0.10 0.09 0.08
0.02 0.02 0.02 0.02 0.03 0.03 0.04 0.04 0.05 0.06 0.07 0.09 0.10 0.10 0.10 0.08 0.08 0.08 0.08 0.09 0.09 0.10 0.10 0.10 0.11 0.11 0.11 0.10 0.10 0.10 0.10 0.10 0.09 0.09 0.09 0.10 0.09 0.09 0.09 0.09 0.09 0.08 0.08 0.08